Location: ??
(35.5672°N, 139.6509°E)
Time: 09:56:10
(UTC+00:00)

SL-16 R/B - Pass Details

Date: 03 August 2024
Orbit: 985 x 1006 km, 99.7° (Epoch: 13 September)

Event Time Altitude Azimuth Distance (km) Brightness Sun altitude
Exits shadow 16:28:10 - 120° (ESE) 2,799 4.9 -32.1°
Reaches altitude 10° 16:28:22 10° 119° (ESE) 2,738 4.8 -32.0°
Maximum altitude 16:33:18 26° 65° (ENE) 1,829 4.3 -31.6°
Drops below altitude 10° 16:38:15 10° 11° (N) 2,748 5.6 -31.0°
Sets 16:41:06 0° 360° (N) 3,701 6.3 -30.7°
